Theta_e
320 321 322 322 322 321 322 322 322 321 321 320 320 319 319 319 319 320 321 320 319 319 317 315 311 310 308
322 322 322 322 321 320 319 322 321 322 322 322 321 321 321 321 320 320 321 320 320 319 316 311 308 309 304
322 322 321 320 320 318 319 319 320 320 320 319 319 318 319 318 319 318 318 318 318 317 315 316 314 312 305
321 319 319 319 318 317 318 318 317 318 318 318 318 316 317 316 315 316 315 316 315 315 314 314 312 311 309
318 317 317 316 315 314 314 315 316 315 316 316 316 316 315 314 314 314 313 313 313 313 314 313 312 310 308
313 314 314 313 313 313 311 311 310 312 312 313 314 314 313 312 311 311 311 310 311 311 311 311 310 310 306
310 309 308 309 309 309 309 308 307 309 308 309 310 310 310 309 308 308 307 306 306 307 308 309 309 308 305
301 300 299 297 296 296 296 297 298 299 299 300 300 300 300 301 302 302 301 302 303 305 306 306 306 305 303
292 292 291 291 291 292 292 293 293 294 294 296 297 296 297 297 299 300 302 302 301 301 302 303 303 302 299
291 291 291 291 291 291 291 292 292 292 294 293 293 293 294 295 296 296 296 296 298 299 300 301 301 300 299
290 289 289 289 289 289 290 290 290 290 290 291 292 292 292 293 294 294 294 295 295 297 298 299 299 298 296
288 288 288 288 288 287 287 288 288 288 289 290 291 291 291 292 292 292 293 294 295 296 296 296 296 296 295
287 287 286 286 286 286 286 286 287 287 287 287 289 290 290 290 291 291 291 292 293 294 293 293 293 294 292
285 285 285 285 285 285 285 286 285 286 286 285 286 287 288 288 288 289 291 291 292 292 291 291 291 291 291
284 284 284 284 284 284 283 283 284 284 284 285 285 286 286 287 288 289 289 290 290 290 290 289 290 290 290
282 282 282 282 282 283 282 282 282 283 283 284 284 284 285 286 287 287 287 288 288 288 288 288 288 289 289
281 281 281 281 281 281 282 281 282 281 281 282 282 283 283 284 285 286 286 286 287 287 287 287 287 288 288
Wind_Speed
43 44 43 38 36 36 36 37 35 34 35 35 36 37 39 40 39 41 43 45 45 47 47 46 45 47 43
41 41 41 38 39 39 38 35 35 35 34 35 36 39 39 39 40 40 42 42 46 46 45 44 45 45 38
39 39 42 39 43 46 39 40 40 38 37 34 37 41 42 40 39 41 40 44 44 43 41 37 38 36 32
40 39 35 36 36 41 44 46 44 43 40 40 39 41 38 36 39 40 40 39 38 39 38 35 34 34 34
39 36 36 35 29 24 29 32 38 38 38 39 45 41 39 40 38 40 37 37 35 32 32 34 32 33 32
33 34 35 35 36 35 35 35 41 39 41 44 39 44 41 40 38 37 37 34 33 31 30 32 30 31 28
31 30 32 33 34 35 35 35 38 39 40 48 43 44 43 42 39 40 39 37 34 32 31 30 29 29 26
26 27 28 29 29 30 31 33 36 37 33 41 40 41 38 33 32 31 28 26 23 23 24 25 25 25 27
24 24 24 25 25 26 26 29 34 33 29 23 28 36 42 39 27 19 9 16 28 29 30 30 29 28 26
18 19 20 21 22 20 21 22 23 27 16 26 34 32 27 34 19 35 37 32 31 30 30 30 29 29 28
18 19 20 19 19 19 17 18 21 24 28 24 30 31 29 38 42 42 39 35 33 32 31 31 29 25 25
19 20 20 21 21 22 22 22 20 23 24 21 27 27 30 37 41 39 39 36 34 32 30 27 24 20 22
21 21 22 23 23 24 25 25 23 22 22 22 21 24 25 30 36 38 38 38 32 26 25 25 23 19 22
23 23 23 22 22 22 25 26 27 27 23 19 22 23 26 28 31 35 33 33 33 29 27 25 20 20 21
23 24 25 25 25 24 24 25 24 27 28 25 24 27 26 27 30 28 27 27 26 24 22 22 20 19 18
23 24 25 25 27 26 25 25 26 25 25 24 26 31 31 28 23 26 27 25 23 20 19 20 20 17 16
23 23 24 25 26 27 27 27 26 25 27 27 27 26 29 33 32 24 28 30 27 23 19 18 19 16 13
Wind_Direction
294 301 302 305 303 298 293 291 288 289 292 289 287 286 283 286 287 286 284 285 285 284 284 285 286 286 289
294 297 301 305 303 306 304 299 297 293 293 290 291 294 291 289 288 289 290 290 291 286 282 286 284 288 283
294 298 300 301 299 301 299 299 301 300 296 291 295 292 291 291 292 291 291 293 290 293 294 300 299 296 283
292 295 297 305 301 304 300 303 303 302 298 295 298 299 296 300 298 298 295 293 292 292 294 295 293 292 289
278 280 287 286 289 292 288 290 294 297 296 295 298 297 296 299 296 296 293 293 292 291 292 293 292 291 288
287 292 293 293 291 291 289 291 297 295 292 292 290 290 292 294 296 293 295 296 297 298 298 295 295 290 285
288 289 290 291 293 294 293 292 291 294 294 292 294 293 295 296 296 294 296 297 298 297 295 291 292 291 281
290 292 292 293 294 295 296 294 292 293 297 294 299 299 301 298 298 303 309 310 310 309 305 300 296 292 285
291 295 297 299 302 301 300 300 303 306 315 304 309 307 306 312 315 318 315 306 307 306 303 302 301 298 278
300 303 305 307 310 309 307 310 313 316 296 304 306 316 316 310 302 303 311 311 308 303 300 299 298 294 281
314 313 310 309 312 314 312 308 307 296 299 306 303 307 304 305 306 311 313 314 312 309 305 302 298 292 278
318 317 316 317 315 315 311 304 302 304 309 300 296 301 302 301 303 308 309 309 311 310 305 299 295 287 262
321 321 321 320 318 314 312 311 312 310 316 324 303 300 301 297 299 303 306 308 310 307 305 301 298 286 261
321 321 319 318 319 320 318 317 317 317 319 325 320 314 305 303 301 300 306 304 309 308 306 302 295 287 269
322 322 322 323 322 322 323 322 320 318 320 322 321 320 311 311 312 312 315 311 311 314 307 301 295 289 277
322 322 323 323 321 322 323 325 322 320 320 320 321 319 318 311 316 319 318 318 319 313 307 301 294 288 280
322 321 320 320 321 322 323 323 321 321 315 318 317 317 320 319 319 319 315 316 316 313 309 301 295 289 280